XE1MMG-6 Weather Reports


time (UTC)temp
C
wind
direction
speed
KPH
gust
KPH
rain 1hr
cm
rain 24hr
cm
rain mn
cm
humidity
%
barometer
mb
20260504004843 33 0.0 0.0 0.00 0.00 0.00 30 812.0
20260504003829 32 0.0 0.0 0.00 0.00 0.00 31 812.0
20260504002815 32 0.0 0.0 0.00 0.00 0.00 32 811.6
20260504001801 31 0.0 0.0 0.00 0.00 0.00 33 811.8
20260504000747 33 0.0 0.0 0.00 0.00 0.00 30 811.5
20260503235733 32 0.0 0.0 0.00 0.00 0.00 30 811.5
20260503234719 32 0.0 0.0 0.00 0.00 0.00 30 811.6
20260503233704 33 0.0 0.0 0.00 0.00 0.00 28 811.4
20260503232650 35 0.0 0.0 0.00 0.00 0.00 29 811.0
20260503231636 33 0.0 0.0 0.00 0.00 0.00 28 810.8
20260503230622 33 0.0 0.0 0.00 0.00 0.00 29 810.4
20260503225607 33 0.0 0.0 0.00 0.00 0.00 28 810.5
20260503224553 33 0.0 0.0 0.00 0.00 0.00 28 810.7
20260503223539 32 0.0 0.0 0.00 0.00 0.00 28 810.6
20260503222524 32 0.0 0.0 0.00 0.00 0.00 28 810.6
20260503221510 33 0.0 0.0 0.00 0.00 0.00 27 810.5
20260503220456 33 0.0 0.0 0.00 0.00 0.00 27 810.7
20260503215442 33 0.0 0.0 0.00 0.00 0.00 27 810.8
20260503214428 35 0.0 0.0 0.00 0.00 0.00 27 810.7
20260503213413 35 0.0 0.0 0.00 0.00 0.00 27 810.8
20260503212359 35 0.0 0.0 0.00 0.00 0.00 27 811.1
20260503211345 33 0.0 0.0 0.00 0.00 0.00 28 811.0
20260503210331 34 0.0 0.0 0.00 0.00 0.00 28 811.3
20260503205316 34 0.0 0.0 0.00 0.00 0.00 28 811.5
20260503204302 34 0.0 0.0 0.00 0.00 0.00 28 811.7
20260503203248 34 0.0 0.0 0.00 0.00 0.00 28 811.9
20260503202234 33 0.0 0.0 0.00 0.00 0.00 28 812.0
20260503201219 33 0.0 0.0 0.00 0.00 0.00 28 812.1
20260503200205 33 0.0 0.0 0.00 0.00 0.00 28 812.3
20260503195151 33 0.0 0.0 0.00 0.00 0.00 28 812.5
20260503193122 33 0.0 0.0 0.00 0.00 0.00 29 812.8
20260503192108 33 0.0 0.0 0.00 0.00 0.00 29 812.9
20260503191054 33 0.0 0.0 0.00 0.00 0.00 29 813.1
20260503190040 33 0.0 0.0 0.00 0.00 0.00 29 813.1
20260503185026 33 0.0 0.0 0.00 0.00 0.00 29 813.3
20260503184012 33 0.0 0.0 0.00 0.00 0.00 30 813.6
20260503182957 32 0.0 0.0 0.00 0.00 0.00 30 813.7
20260503181943 32 0.0 0.0 0.00 0.00 0.00 31 813.9
20260503180929 32 0.0 0.0 0.00 0.00 0.00 31 814.1
20260503175915 31 0.0 0.0 0.00 0.00 0.00 31 814.2
20260503174900 31 0.0 0.0 0.00 0.00 0.00 33 814.4
20260503173843 31 0.0 0.0 0.00 0.00 0.00 33 814.5
20260503172829 31 0.0 0.0 0.00 0.00 0.00 33 814.5
20260503171815 31 0.0 0.0 0.00 0.00 0.00 33 814.7
20260503170801 31 0.0 0.0 0.00 0.00 0.00 34 814.7
20260503150510 30 0.0 0.0 0.00 0.00 0.00 35 815.3
20260503131234 30 0.0 0.0 0.00 0.00 0.00 35 813.9
20260503130220 30 0.0 0.0 0.00 0.00 0.00 35 813.9
20260503081542 30 0.0 0.0 0.00 0.00 0.00 34 813.5
20260503080527 30 0.0 0.0 0.00 0.00 0.00 34 813.4
20260503072431 31 0.0 0.0 0.00 0.00 0.00 32 813.5
20260503071417 31 0.0 0.0 0.00 0.00 0.00 32 813.5
20260503070402 31 0.0 0.0 0.00 0.00 0.00 31 813.6
20260503060237 31 0.0 0.0 0.00 0.00 0.00 31 813.6
20260503054209 31 0.0 0.0 0.00 0.00 0.00 31 813.5
20260503053155 31 0.0 0.0 0.00 0.00 0.00 31 813.3
20260503052140 33 0.0 0.0 0.00 0.00 0.00 29 813.3
20260503051126 31 0.0 0.0 0.00 0.00 0.00 31 813.2
20260503050111 32 0.0 0.0 0.00 0.00 0.00 30 813.3
20260503045057 32 0.0 0.0 0.00 0.00 0.00 30 813.2
20260503044043 32 0.0 0.0 0.00 0.00 0.00 30 813.3
20260503043029 32 0.0 0.0 0.00 0.00 0.00 31 813.1
20260503042014 31 0.0 0.0 0.00 0.00 0.00 31 813.3
20260503041000 31 0.0 0.0 0.00 0.00 0.00 32 813.3
20260503035946 32 0.0 0.0 0.00 0.00 0.00 30 813.2
20260503034932 32 0.0 0.0 0.00 0.00 0.00 30 813.0
20260503033918 31 0.0 0.0 0.00 0.00 0.00 31 812.7
20260503032903 32 0.0 0.0 0.00 0.00 0.00 31 812.4
20260503031849 32 0.0 0.0 0.00 0.00 0.00 31 812.3
20260503030835 32 0.0 0.0 0.00 0.00 0.00 31 812.2
20260503025820 32 0.0 0.0 0.00 0.00 0.00 31 812.1
20260503024806 32 0.0 0.0 0.00 0.00 0.00 31 811.8
20260503023752 32 0.0 0.0 0.00 0.00 0.00 31 811.5
20260503022738 32 0.0 0.0 0.00 0.00 0.00 30 811.3
20260503021723 33 0.0 0.0 0.00 0.00 0.00 29 811.1
20260503020709 33 0.0 0.0 0.00 0.00 0.00 29 811.1
20260503015655 33 0.0 0.0 0.00 0.00 0.00 29 810.9
20260503014641 32 0.0 0.0 0.00 0.00 0.00 30 810.8
20260503013627 33 0.0 0.0 0.00 0.00 0.00 29 810.7
20260503012612 33 0.0 0.0 0.00 0.00 0.00 29 810.6
20260503011558 31 0.0 0.0 0.00 0.00 0.00 30 810.6
20260503010544 33 0.0 0.0 0.00 0.00 0.00 28 810.3
20260503005529 33 0.0 0.0 0.00 0.00 0.00 25 810.2